Location: College Park
(38.9810°N, 76.9370°W)
Time: 21:42:19
(UTC-04:00)

N. Korean satellite - Pass Details

Date: 06 January 2018
Orbit: 458 x 514 km, 97.2° (Epoch: 24 April)

Event Time Altitude Azimuth Distance (km) Brightness Sun altitude
Rises 18:11:34 0° 172° (S) 2,611 10.4 -13.5°
Reaches altitude 10° 18:13:40 10° 174° (S) 1,725 9.5 -13.8°
Maximum altitude 18:17:23 71° 259° (W) 539 6.9 -14.5°
Drops below altitude 10° 18:21:05 10° 344° (NNW) 1,715 9.3 -15.2°
Sets 18:23:09 0° 347° (NNW) 2,594 10.2 -15.6°
